Flag for U.S.A. Weather past 2 weeks in Rockford, Illinois, U.S.A.

Now
67 °F

Mostly cloudy.


Feels Like: 67 °F
Forecast: 56 / 74 °F
Wind: No wind

Location: Greater Rockford Airport

Current Time: Jul 1, 2015 at 11:12:55 AM

Latest Report: Jul 1, 2015 at 10:54 AM


Visibility: 10 mi

Pressure: 29.98 "Hg

Humidity: 66%

Dew point: 55 °F

Location of RockfordLocation

Historic Weather in Rockford — Graph

°F

Rockford temperature yesterday

Maximum temperature yesterday: 76 °F (at 3:01 PM)
Minimum temperature yesterday: 60 °F (at 4:54 AM)
Average temperature yesterday: 68 °F

Past Weeks' High & Low Weather Summary

 TemperatureHumidityPressure
High85 °F (Jun 21, 2:54 PM)94% (Jun 21, 2:54 AM)30.17 "Hg (Jun 21, 2:54 AM)
Low54 °F (Jun 28, 5:54 AM)32% (Jun 27, 2:54 PM)29.71 "Hg (Jun 20, 12:54 PM)
Average69 °F73%29.95 "Hg
* Reported Jun 16 9:54 AM — Jul 1 9:54 AM, Rockford, Weather by CustomWeather, © 2015

Note: Actual official high and low records may vary slightly from our data, if they occured in-between our weather recording intervals... More about our weather records

Advertising

Rockford weather history for previous 24 hours

 ConditionsComfort  
Time TempWeatherWind HumidityBarometerVisibility
9:54 AM
Wed, Jul 1
64 °FOvercast.3 mph73%29.98 "Hg10 mi
8:54 AM63 °FMostly cloudy.8 mph73%29.98 "Hg10 mi
7:54 AM60 °FMostly cloudy.6 mph83%29.97 "Hg8 mi
6:54 AM59 °FLow clouds.6 mph84%29.97 "Hg8 mi
5:54 AM59 °FMostly cloudy.5 mph84%29.95 "Hg10 mi
4:54 AM58 °FPartly cloudy.No wind87%29.94 "Hg10 mi
3:54 AM58 °FPartly cloudy.No wind87%29.94 "Hg10 mi
2:54 AM58 °FOvercast.3 mph87%29.94 "Hg10 mi
1:54 AM59 °FPassing clouds.5 mph87%29.92 "Hg10 mi
12:54 AM61 °FPartly cloudy.6 mph83%29.92 "Hg10 mi
11:54 PM
Tue, Jun 30
63 °FPassing clouds.7 mph84%29.91 "Hg10 mi
10:54 PM68 °FPassing clouds.10 mph76%29.90 "Hg10 mi
9:54 PM69 °FPassing clouds.6 mph73%29.89 "Hg10 mi
8:54 PM70 °FPartly sunny.5 mph71%29.86 "Hg9 mi
7:54 PM73 °FPartly sunny.5 mph64%29.86 "Hg10 mi
6:54 PM74 °FBroken clouds.6 mph60%29.85 "Hg10 mi
5:54 PM76 °FBroken clouds.6 mph56%29.85 "Hg10 mi
4:54 PM76 °FScattered clouds.8 mph56%29.85 "Hg10 mi
3:54 PM76 °FScattered clouds.9 mph56%29.85 "Hg10 mi
3:01 PM76 °FPartly sunny.10 mph58%29.86 "Hg10 mi
1:54 PM74 °FPartly sunny.13 mph62%29.85 "Hg10 mi
12:54 PM74 °FPartly sunny.9 mph64%29.85 "Hg9 mi
11:54 AM72 °FPartly sunny.13 mph68%29.85 "Hg10 mi
Weather by CustomWeather, © 2015

See weather overviewHow to use our weather pages